www.pogodaiklimat.ru

Погода и климат >> Архив погоды >> Чили >> Arica


ПОГОДА в Arica

  • Прогноз погоды в Arica
  • Монитор погоды в Arica
  • Климат города

АРХИВ ПОГОДЫ в Arica

Время (UTC), дата Ветер
(напр.,м/с)
 
Видим.   Явления Облачность Т
(С)
Тd
(С)
f
(%)
Тe
(С)
Тes
(С)
Комфортность P
(гПа)
Po
(гПа)
Тmin
(С)
Tmax
(С)
R
(мм)
R24
(мм)
S
(см)
06 18.09 Ю 2 10 км 10/10 660 м
[Sc]
+16.2 +11.2 72 +16 +16 1016.1 1011.7
09 18.09 ЮЗ 2 20 км 10/10 660 м
[Sc]
+15.7 +11.1 74 +16 +16 1014.9 1010.5
12 18.09 ЮЗ 1 20 км 10/10 570 м
[Sc]
+15.3 +11.3 77 +16 +16 1017.1 1012.6 +15.1
15 18.09 ЮЗ 3 10 км 10/10 600 м
[Sc]
+17.0 +11.6 70 +17 +17 1016.4 1012.0
18 18.09 Ю 8 20 км ясно +18.5 +11.2 62 +18 +21 1013.8 1009.4
21 18.09 ЮЗ 4 30 км 9/9 900 м
[Sc]
+16.9 +10.6 66 +16 +17 1014.0 1009.6
00 19.09 Ю 3 10 км 10/10 600 м
[Sc]
+16.1 +11.1 72 +16 +16 1015.8 1011.4 +19.1
03 19.09 Ю 3 10 км 10/10 600 м
[Sc]
+16.1 +10.9 71 +16 +16 1016.0 1011.7
06 19.09 ЮЗ 2 10 км 10/10 700 м
[Sc]
+16.1 +10.7 70 +16 +16 1014.9 1010.5
09 19.09 ЮЗ 2 10 км 10/10 700 м
[Sc]
+15.8 +10.4 70 +16 +16 1014.9 1010.5
12 19.09 СЗ 2 20 км 10/10 570 м
[Sc]
+15.6 +10.2 70 +16 +16 1016.4 1011.9 +15.5
15 19.09 ЮЗ 3 20 км 10/10 600 м
[Sc]
+16.5 +10.2 66 +16 +16 1016.1 1011.7
18 19.09 ЮЗ 6 20 км ясно +18.7 +10.4 58 +19 +27 1012.8 1008.4
21 19.09 ЮЗ 6 30 км ясно +17.4 +10.8 65 +17 +18 1012.5 1008.1
00 20.09 ЮЗ 1 10 км 8/8 600 м
[Sc]
+15.9 +10.9 72 +17 +17 1014.3 1009.9 +18.8
03 20.09 Ю 2 10 км 10/10 700 м
[Sc]
+16.1 +10.5 69 +16 +16 1014.3 1009.9
06 20.09 ЮЗ 2 20 км 10/10 600 м
[Sc]
+15.6 +10.4 71 +16 +16 1013.2 1008.8
09 20.09 З 2 20 км 10/10 600 м
[Sc]
+15.3 +10.3 72 +15 +15 1012.8 1008.4
12 20.09 Ю 2 20 км 10/10 480 м
[Sc]
+15.4 +10.2 71 +16 +16 1014.1 1009.8 +15.2
15 20.09 ЮЗ 5 10 км 10/10 480 м
[Sc]
+16.6 +10.7 68 +16 +16 1014.4 1010.0
18 20.09 ЮЗ 5 10 км ясно +17.9 +10.6 62 +18 +28 1012.7 1008.3
21 20.09 ЮЗ 4 30 км ясно +17.2 +10.6 65 +17 +19 1011.5 1007.2
00 21.09 ЮЗ 1 10 км ясно +16.0 +11.2 73 +17 +17 1013.4 1009.0 +18.7
03 21.09 З 1 20 км 10/10 660 м
[Sc]
+16.4 +11.2 71 +18 +18 1014.4 1010.0
06 21.09 С 1 20 км 10/10 660 м
[Sc]
+16.1 +10.7 70 +17 +17 1012.7 1008.3
09 21.09 Ю 1 20 км 10/10 660 м
[Sc]
+15.7 +10.5 71 +16 +16 1011.7 1007.3
12 21.09 З 1 10 км 10/10 570 м
[Sc]
+15.9 +10.7 71 +17 +17 1013.0 1008.6 +15.6
15 21.09 ЮЗ 4 20 км 10/10 600 м
[Sc]
+16.8 +10.9 68 +16 +16 1013.4 1009.0
18 21.09 ЮЗ 6 30 км ясно +18.1 +10.6 62 +18 +24 1011.8 1007.4
21 21.09 ЮЗ 4 40 км 6/6 900 м
[Sc]
+17.8 +11.0 64 +18 +19 1011.9 1007.5
00 22.09 Ю 3 20 км 10/10 600 м
[Sc]
+16.5 +10.9 69 +16 +16 1014.5 1010.2 +18.6
03 22.09 Ю 1 20 км 10/10 600 м
[Sc]
+16.3 +10.9 70 +17 +17 1016.5 1012.1
06 22.09 0 10 км 10/10 600 м
[Sc]
+16.4 +10.8 69 1015.2 1010.8
09 22.09 0 20 км 10/10 600 м
[Sc]
+16.2 +10.1 67 1013.9 1009.5
12 22.09 З 2 20 км 10/10 600 м
[Sc]
+16.1 +9.8 66 +16 +16 1015.9 1011.5 +16.1
15 22.09 ЮЗ 5 30 км 3/0
[]
+17.5 +9.7 60 +17 +24 1015.4 1011.0
18 22.09 ЮЗ 6 20 км ясно +18.3 +9.5 56 +18 +26 1013.4 1009.0
21 22.09 ЮЗ 4 10 км 4/0
[]
+17.8 +11.0 64 +18 +20 1013.3 1008.9
00 23.09 ЮЗ 2 10 км 9/9 700 м
[Sc]
+16.9 +10.6 66 +17 +17 1014.8 1010.4 +19.4
03 23.09 ЮЗ 2 10 км 8/8 700 м
[Sc]
+16.9 +11.2 69 +17 +17 1015.9 1011.5
06 23.09 В 2 10 км 9/9 600 м
[Sc]
+16.8 +10.5 66 +17 +17 1014.5 1010.1
09 23.09 В 3 10 км 10/10 600 м
[Sc]
+13.0 +7.7 70 +12 +12 1013.6 1009.1
12 23.09 ЮВ 2 5000 м мгла 10/10 600 м
[Sc]
+15.6 +9.3 66 +16 +16 1014.6 1010.2 +12.7
15 23.09 ЮЗ 4 20 км ясно +17.9 +9.6 58 +18 +29 1014.6 1010.2
18 23.09 ЮЗ 5 20 км ясно +18.0 +10.7 62 +18 +27 1013.1 1008.7
21 23.09 ЮЗ 4 30 км ясно +17.7 +10.6 63 +17 +20 1012.4 1008.0
00 24.09 ЮЗ 2 20 км 8/8 1200 м
[Sc]
+16.8 +11.1 69 +17 +17 1014.2 1009.8 +18.8
03 24.09 ЮЗ 3 30 км 10/10 660 м
[Sc]
+17.0 +11.1 68 +17 +17 1014.8 1010.4
06 24.09 Ю 2 20 км 10/10 720 м
[Sc]
+17.0 +10.4 65 +17 +17 1013.8 1009.4
09 24.09 0 30 км 10/10 660 м
[Sc]
+16.7 +10.4 66 1012.9 1008.5
12 24.09 штиль 0 20 км 10/10 660 м
[Sc]
+17.0 +10.2 64 +17 +17 1013.9 1009.5 +16.7
15 24.09 ЮЗ 5 20 км 6/6 750 м
[Sc]
+18.0 +10.6 62 +18 +21 1014.6 1010.2
18 24.09 ЮЗ 5 20 км ясно +18.8 +10.7 59 +19 +28 1013.4 1009.0
21 24.09 ЮЗ 4 30 км 4/0
[]
+18.3 +11.0 62 +18 +20 1012.5 1008.1
00 25.09 Ю 2 10 км ясно +16.7 +11.9 73 +17 +17 1014.0 1009.6 +19.8
03 25.09 ЮВ 2 10 км 10/10 900 м
[Sc]
+16.6 +11.8 73 +17 +17 1015.8 1011.4

 

Местоположение метеостанции Arica (Чили): широта -18.46 долгота -70.16 высота над уровнем моря 58 м.

В архиве по умолчанию представлена погода в Arica за последнюю неделю. Архивные данные за месяц целиком и за предыдущие месяцы, начиная с января 2011 года, Вы можете получить, выбрав интересующий диапазон дат из раскрывающегося списка и нажав кнопку "Ввод!".


*Определитесь, кто Вы:
робот инопланетянин человек

Внимание! Время в таблицах - всемирное. Для получения местного времени необходимо прибавить поправку, которая в Arica равна -4 ч.

Смотрите также архив погоды в соседних городах и на ближайших метеорологических станциях:

Погода в Tacna (Перу) (47 км)
Погода в Ilo (Перу) (151 км)
Погода в Iquique (Чили) (230 км)
Погода в Arequipa (Перу) (280 км)
Погода в La Paz (Боливия) (302 км)
Погода в Ovejuyo (Боливия) (311 км)
Погода в Juliaca (Перу) (331 км)
Погода в Oruro (Боливия) (332 км)
Погода в Cochabamba (Боливия) (437 км)
Погода в Calama (Чили) (464 км)

Пояснения к столбцам:

Ветер - указаны скорость ветра в м/с - средняя за 10 мин, порывы в срок и между сроками (в фигурных скобках) и направление, откуда дует ветер: С - северный, СВ - северо-восточный, В - восточный, ЮВ - юго-восточный, Ю - южный, ЮЗ - юго-западный, З - западный, СЗ - северо-западный.
Видимость - горизонтальная дальность видимости в метрах или километрах. При видимости от 1 до 10 км при отсутствии осадков обычно наблюдается дымка, при ухудшении видимости до 1 км и менее - туман. В сухую погоду видимость может ухудшаться дымом, пылью или мглою.
Явления - указаны атмосферные явления, наблюдавшиеся в срок или в последний час перед сроком; фигурными скобками обозначены явления, наблюдавшиеся между сроками (за 1-3 часа до срока); квадратными скобками обозначены град или гололедные отложения с указанием их диаметра в мм.
Облачность - указаны через наклонную черту общая и нижняя облачность в баллах и высота нижней границы облаков в метрах; квадратными скобками обозначены формы облаков: Ci - перистые, Cs - перисто-слоистые, Cc - перисто-кучевые, Ac - высококучевые, As - высокослоистые, Sc - слоисто-кучевые, Ns - слоисто-дождевые, Cu - кучевые, Cb - кучево-дождевые. Подробнее классификацию облаков см. в Атласе облаков (PDF).
T - Температура воздуха - температура, измеренная на высоте 2 м над землей.
Td - Температура точки росы - температура, при понижении до которой содержащийся в воздухе водяной пар достигнет насыщения.
f - Относительная влажность воздуха - влажноcть воздуха, измеренная на высоте 2 м над землей.
Te - Эффективная температура - температура, которую ощущает одетый по сезону человек в тени. Характеристика душности погоды. При расчете учитывается влияние влажности воздуха и скорости ветра на теплоощущения человека.
Tes - Эффективная температура на солнце - температура, которую ощущает человек, с поправкой на солнечный нагрев. Характеристика знойности погоды. Зависит от высоты солнца над горизонтом, облачности и скорости ветра. Ночью, в пасмурную погоду, а также при ветре 12 м/с и более поправка равна нулю.
P - Атмосферное давление - приведенное к уровню моря атмосферное давление.
Po - Атмосферное давление - измеренное на уровне метеостанции атмосферное давление.
Tmin - Минимальная температура - минимум температуры воздуха на высоте 2 м над землей.
Tmax - Максимальная температура - максимум температуры воздуха на высоте 2 м над землей.
R - Количество осадков - Количество выпавших осадков за период времени, мм. При наведении курсора мыши на число - период времени, за который выпало указанное количество осадков.
R24 - Количество осадков - Количество выпавших осадков за 24 часа, мм.
S - Снежный покров - Высота снежного покрова, см. При наведении курсора мыши на число - состояние снежного покрова и степень покрытия местности в баллах.